Great Bend, KS

2:36 PM CDT on July 28, 2017 (GMT -0500)
Great Bend Municipal

Weather History for KGBD - October, 2012

Change the Weather History Date:

Thursday, October 18, 2012

  Actual Average Record
Temperature  
Mean Temperature 53 °F -  
Max Temperature 62 °F 67 °F 89 °F (2005)
Min Temperature 44 °F 44 °F 26 °F (1952)
Degree Days  
Heating Degree Days 12    
Growing Degree Days 3 (Base 50)    
Moisture  
Dew Point 20 °F    
Average Humidity 28    
Maximum Humidity 43    
Minimum Humidity 16    
Precipitation  
Precipitation 0.00 in - - ()
Sea Level Pressure  
Sea Level Pressure 29.88 in    
Wind  
Wind Speed 19 mph (WNW)    
Max Wind Speed 37 mph    
Max Gust Speed 48 mph    
Visibility 8 miles    
Events      
Averages and records for this station are not official NWS values.
T = Trace of Precipitation, MM = Missing Value Source: NWS Daily Summary

Daily Weather History Graph

Daily Weather History Graph

Search for Another Location

Airport or City:

Trip Planner

Search our weather history database for the weather conditions in past years. The results will help you decide how hot, cold, wet, or windy it might be!

Date:

Astronomy

Oct. 18, 2012 Rise Set
Actual Time 7:47 AM CDT 6:52 PM CDT
Civil Twilight 7:21 AM CDT 7:19 PM CDT
Nautical Twilight 6:50 AM CDT 7:50 PM CDT
Astronomical Twilight 6:19 AM CDT 8:20 PM CDT
Moon 11:28 AM CDT (10/18) 9:31 PM CDT (10/18)
Length of Visible Light 11h 58m
Length of Day
11h 04m
Waxing Crescent, 14% of the Moon is Illuminated
Oct 18
Waxing Crescent
Oct 21
First Quarter
Oct 29
Full
Nov 6
Last Quarter
Nov 13
New

Hourly Weather History & Observations

Time (CDT) Temp. Windchill Dew Point Humidity Pressure Visibility Wind Dir Wind Speed Gust Speed Precip Events Conditions
12:15 AM 48.2 °F - 21.2 °F 34% 29.86 in 10.0 mi NW 12.7 mph - N/A   Clear
12:35 AM 50.0 °F - 21.2 °F 32% 29.85 in 10.0 mi NNW 15.0 mph 19.6 mph N/A   Clear
12:55 AM 50.0 °F - 21.2 °F 32% 29.86 in 10.0 mi West 11.5 mph - N/A   Clear
1:15 AM 50.0 °F - 21.2 °F 32% 29.87 in 10.0 mi WNW 10.4 mph - N/A   Clear
1:35 AM 48.2 °F - 21.2 °F 34% 29.88 in 10.0 mi West 10.4 mph - N/A   Clear
1:55 AM 46.4 °F 40.7 °F 23.0 °F 40% 29.88 in 10.0 mi West 12.7 mph - N/A   Clear
2:15 AM 46.4 °F 41.1 °F 24.8 °F 43% 29.89 in 10.0 mi West 11.5 mph - N/A   Scattered Clouds
2:35 AM 46.4 °F 40.7 °F 24.8 °F 43% 29.89 in 10.0 mi West 12.7 mph - N/A   Scattered Clouds
2:55 AM 46.4 °F 41.1 °F 24.8 °F 43% 29.90 in 10.0 mi West 11.5 mph - N/A   Partly Cloudy
3:15 AM 46.4 °F 40.7 °F 24.8 °F 43% 29.90 in 10.0 mi West 12.7 mph - N/A   Partly Cloudy
3:35 AM 46.4 °F 40.1 °F 24.8 °F 43% 29.91 in 10.0 mi West 15.0 mph - N/A   Clear
3:55 AM 46.4 °F 40.1 °F 23.0 °F 40% 29.90 in 10.0 mi West 15.0 mph - N/A   Clear
4:15 AM 46.4 °F 39.2 °F 23.0 °F 40% 29.91 in 10.0 mi West 18.4 mph 23.0 mph N/A   Clear
4:35 AM 46.4 °F 39.5 °F 23.0 °F 40% 29.90 in 10.0 mi West 17.3 mph 21.9 mph N/A   Clear
4:55 AM 44.6 °F 36.6 °F 23.0 °F 43% 29.90 in 10.0 mi West 19.6 mph 24.2 mph N/A   Clear
5:15 AM 44.6 °F 37.2 °F 21.2 °F 39% 29.90 in 10.0 mi West 17.3 mph - N/A   Clear
5:35 AM 44.6 °F 37.4 °F 21.2 °F 39% 29.90 in 10.0 mi West 16.1 mph - N/A   Clear
5:55 AM 44.6 °F 37.8 °F 21.2 °F 39% 29.90 in 10.0 mi West 15.0 mph - N/A   Clear
6:35 AM 44.6 °F 36.6 °F 21.2 °F 39% 29.90 in 10.0 mi WNW 19.6 mph 24.2 mph N/A   Clear
6:55 AM 44.6 °F 37.4 °F 21.2 °F 39% 29.90 in 10.0 mi WNW 16.1 mph 23.0 mph N/A   Clear
7:15 AM 44.6 °F 36.6 °F 19.4 °F 37% 29.91 in 10.0 mi WNW 19.6 mph 26.5 mph N/A   Clear
7:35 AM 44.6 °F 36.6 °F 21.2 °F 39% 29.91 in 10.0 mi WNW 19.6 mph 25.3 mph N/A   Clear
7:55 AM 44.6 °F 36.6 °F 19.4 °F 37% 29.91 in 10.0 mi WNW 19.6 mph 24.2 mph N/A   Clear
8:15 AM 44.6 °F 36.6 °F 21.2 °F 39% 29.91 in 10.0 mi WNW 19.6 mph 25.3 mph N/A   Clear
8:35 AM 46.4 °F 38.7 °F 19.4 °F 34% 29.91 in 10.0 mi WNW 20.7 mph 27.6 mph N/A   Clear
8:55 AM 46.4 °F 39.0 °F 21.2 °F 37% 29.91 in 10.0 mi WNW 19.6 mph 28.8 mph N/A   Clear
9:15 AM 48.2 °F - 21.2 °F 34% 29.91 in 10.0 mi WNW 25.3 mph 32.2 mph N/A   Clear
9:35 AM 50.0 °F - 19.4 °F 30% 29.92 in 10.0 mi WNW 27.6 mph 34.5 mph N/A   Clear
9:55 AM 51.8 °F - 19.4 °F 28% 29.91 in 10.0 mi NW 28.8 mph 39.1 mph N/A   Clear
10:15 AM 53.6 °F - 19.4 °F 26% 29.91 in 10.0 mi NW 27.6 mph 40.3 mph N/A   Clear
10:35 AM 53.6 °F - 19.4 °F 26% 29.91 in 10.0 mi NW 25.3 mph 41.4 mph N/A   Clear
10:55 AM 55.4 °F - 19.4 °F 25% 29.90 in 10.0 mi NW 34.5 mph 48.3 mph N/A   Clear
11:15 AM 57.2 °F - 19.4 °F 23% 29.90 in 10.0 mi NW 36.8 mph 44.9 mph N/A   Clear
11:35 AM 57.2 °F - 19.4 °F 23% 29.90 in 10.0 mi NW 34.5 mph 47.2 mph N/A   Clear
11:55 AM 57.2 °F - 19.4 °F 23% 29.89 in 10.0 mi NW 32.2 mph 46.0 mph N/A   Clear
12:15 PM 59.0 °F - 19.4 °F 22% 29.89 in 9.0 mi NW 34.5 mph 48.3 mph N/A   Clear
12:35 PM 60.8 °F - 19.4 °F 20% 29.88 in 8.0 mi NW 33.4 mph 48.3 mph N/A   Clear
12:55 PM 60.8 °F - 19.4 °F 20% 29.87 in 7.0 mi NW 33.4 mph 44.9 mph N/A   Partly Cloudy
1:15 PM 60.8 °F - 19.4 °F 20% 29.86 in 5.0 mi NW 35.7 mph 44.9 mph N/A   Mostly Cloudy
1:35 PM 62.6 °F - 19.4 °F 19% 29.86 in 4.0 mi NW 28.8 mph 42.6 mph N/A   Overcast
1:55 PM 62.6 °F - 19.4 °F 19% 29.85 in 3.0 mi NW 27.6 mph 44.9 mph N/A   Overcast
2:15 PM 62.6 °F - 19.4 °F 19% 29.84 in 3.0 mi NW 33.4 mph 48.3 mph N/A   Overcast
2:35 PM 62.6 °F - 19.4 °F 19% 29.83 in 2.0 mi NW 32.2 mph 48.3 mph N/A   Overcast
2:55 PM 62.6 °F - 17.6 °F 18% 29.83 in 1.8 mi NW 31.1 mph 47.2 mph N/A   Overcast
3:15 PM 62.6 °F - 17.6 °F 18% 29.83 in 1.5 mi NW 36.8 mph 48.3 mph N/A   Overcast
3:35 PM 62.6 °F - 17.6 °F 18% 29.83 in 1.5 mi NW 33.4 mph 43.7 mph N/A   Overcast
3:55 PM 62.6 °F - 17.6 °F 18% 29.84 in 1.5 mi NW 33.4 mph 43.7 mph N/A   Overcast
4:15 PM 62.6 °F - 17.6 °F 18% 29.84 in 1.5 mi NW 36.8 mph 47.2 mph N/A   Overcast
4:35 PM 62.6 °F - 15.8 °F 16% 29.84 in 1.8 mi NW 28.8 mph 43.7 mph N/A   Overcast
4:55 PM 62.6 °F - 15.8 °F 16% 29.85 in 1.8 mi NW 23.0 mph 39.1 mph N/A   Overcast
5:15 PM 60.8 °F - 15.8 °F 17% 29.85 in 1.8 mi NW 31.1 mph 40.3 mph N/A   Overcast
5:35 PM 60.8 °F - 15.8 °F 17% 29.84 in 1.8 mi NW 27.6 mph 38.0 mph N/A   Overcast
5:55 PM 60.8 °F - 15.8 °F 17% 29.85 in 2.0 mi NW 25.3 mph 34.5 mph N/A   Overcast
6:15 PM 60.8 °F - 17.6 °F 19% 29.85 in 2.5 mi NW 20.7 mph 31.1 mph N/A   Overcast
6:35 PM 60.8 °F - 17.6 °F 19% 29.86 in 2.5 mi NW 21.9 mph 32.2 mph N/A   Overcast
6:55 PM 59.0 °F - 17.6 °F 20% 29.87 in 3.0 mi NW 20.7 mph 31.1 mph N/A   Overcast
7:15 PM 59.0 °F - 17.6 °F 20% 29.87 in 4.0 mi NW 24.2 mph 33.4 mph N/A   Overcast
7:35 PM 57.2 °F - 17.6 °F 21% 29.88 in 5.0 mi NW 20.7 mph 28.8 mph N/A   Overcast
7:55 PM 57.2 °F - 17.6 °F 21% 29.88 in 7.0 mi NW 18.4 mph 28.8 mph N/A   Overcast
8:15 PM 57.2 °F - 17.6 °F 21% 29.89 in 7.0 mi NW 18.4 mph 25.3 mph N/A   Overcast
8:35 PM 55.4 °F - 17.6 °F 23% 29.89 in 7.0 mi NW 17.3 mph 23.0 mph N/A   Overcast
8:55 PM 55.4 °F - 17.6 °F 23% 29.90 in 7.0 mi NW 17.3 mph - N/A   Partly Cloudy
9:15 PM 53.6 °F - 17.6 °F 24% 29.90 in 8.0 mi WNW 15.0 mph 21.9 mph N/A   Clear
9:35 PM 53.6 °F - 17.6 °F 24% 29.90 in 8.0 mi WNW 13.8 mph - N/A   Clear
9:55 PM 53.6 °F - 19.4 °F 26% 29.91 in 8.0 mi WNW 13.8 mph - N/A   Clear
10:15 PM 53.6 °F - 19.4 °F 26% 29.91 in 8.0 mi WNW 13.8 mph - N/A   Clear
10:35 PM 53.6 °F - 17.6 °F 24% 29.91 in 9.0 mi WNW 15.0 mph - N/A   Clear
10:55 PM 51.8 °F - 17.6 °F 26% 29.91 in 10.0 mi WNW 16.1 mph - N/A   Clear
11:15 PM 51.8 °F - 17.6 °F 26% 29.91 in 10.0 mi NW 13.8 mph 20.7 mph N/A   Clear
11:35 PM 51.8 °F - 17.6 °F 26% 29.91 in 10.0 mi WNW 15.0 mph - N/A   Clear
11:55 PM 51.8 °F - 17.6 °F 26% 29.91 in 10.0 mi WNW 16.1 mph 20.7 mph N/A   Clear